TimeEST,TemperatureF,Dew PointF,Humidity,Sea Level PressureIn,VisibilityMPH,Wind Direction,Wind SpeedMPH,Gust SpeedMPH,PrecipitationIn,Events,Conditions,WindDirDegrees,DateUTC
12:00 AM,19.4,14.0,80,30.25,15.0,WNW,10.4,-,N/A,,Overcast,290,2012-11-24 05:00:00
12:39 AM,19.4,14.0,80,30.25,15.0,WNW,10.4,-,N/A,Snow,Light Snow,290,2012-11-24 05:39:00
1:00 AM,19,13,70,30.26,10,WNW,10.4,,,,Overcast,290,2012-11-24 06:00:00
1:00 AM,19.4,14.0,80,30.26,15.0,WNW,9.2,-,N/A,Snow,Light Snow,290,2012-11-24 06:00:00
2:00 AM,19.4,14.0,80,30.26,15.0,WNW,8.1,-,N/A,Snow,Light Snow,290,2012-11-24 07:00:00
3:00 AM,17.6,12.2,79,30.27,15.0,WNW,9.2,-,N/A,Snow,Light Snow,300,2012-11-24 08:00:00
4:00 AM,17.6,12.2,79,30.27,15.0,WNW,12.7,-,N/A,Snow,Light Snow,290,2012-11-24 09:00:00
5:00 AM,17.6,12.2,79,30.26,15.0,WNW,8.1,-,N/A,Snow,Light Snow,300,2012-11-24 10:00:00
6:00 AM,17.6,12.2,79,30.25,15.0,WNW,5.8,-,N/A,Snow,Light Snow,300,2012-11-24 11:00:00
7:00 AM,17,13,76,30.27,10,WNW,5.8,,,Snow,Light Snow,290,2012-11-24 12:00:00
7:00 AM,17.6,12.2,79,30.26,15.0,West,5.8,-,N/A,Snow,Light Snow,280,2012-11-24 12:00:00
8:00 AM,17.6,12.2,79,30.25,15.0,West,3.5,-,N/A,Snow,Light Snow,280,2012-11-24 13:00:00
9:00 AM,17.6,12.2,79,30.25,20.0,West,3.5,-,N/A,Snow,Light Snow,270,2012-11-24 14:00:00
10:00 AM,17.6,12.2,79,30.25,20.0,West,6.9,-,N/A,Snow,Light Snow,280,2012-11-24 15:00:00
11:00 AM,17.6,10.4,73,30.22,15.0,West,3.5,-,N/A,Snow,Light Snow,270,2012-11-24 16:00:00
12:00 PM,17.6,10.4,73,30.21,20.0,SW,3.5,-,N/A,Snow,Light Snow,230,2012-11-24 17:00:00
1:00 PM,18,11,63,30.18,10,West,5.8,,,Snow,Light Snow,270,2012-11-24 18:00:00
1:00 PM,17.6,10.4,73,30.18,20.0,West,8.1,-,N/A,Snow,Light Snow,280,2012-11-24 18:00:00
2:00 PM,17.6,8.6,68,30.15,20.0,SSW,8.1,-,N/A,,Mostly Cloudy,210,2012-11-24 19:00:00
3:00 PM,17.6,10.4,73,30.12,20.0,WNW,3.5,-,N/A,Snow,Light Snow,300,2012-11-24 20:00:00
4:00 PM,19.4,10.4,68,30.10,20.0,Calm,Calm,-,N/A,,Overcast,0,2012-11-24 21:00:00
4:46 PM,17.6,10.4,73,30.07,20.0,East,3.5,-,N/A,,Overcast,80,2012-11-24 21:46:00
5:00 PM,17.6,10.4,73,30.06,20.0,ENE,3.5,-,N/A,,Overcast,60,2012-11-24 22:00:00
6:00 PM,17.6,12.2,79,30.04,15.0,North,3.5,-,N/A,,Overcast,10,2012-11-24 23:00:00
7:00 PM,18,14,76,30.00,10,NNE,2.3,,,,Overcast,20,2012-11-25 00:00:00
7:00 PM,19.4,14.0,80,30.01,15.0,Calm,Calm,-,N/A,,Overcast,0,2012-11-25 00:00:00
8:00 PM,19.4,14.0,80,29.96,15.0,North,3.5,-,N/A,,Overcast,360,2012-11-25 01:00:00
8:38 PM,19.4,15.8,86,29.95,3.0,NNE,2.3,-,N/A,Snow,Light Snow,30,2012-11-25 01:38:00
8:45 PM,19.4,15.8,86,29.94,1.0,NNE,3.5,-,N/A,Snow,Light Snow,30,2012-11-25 01:45:00
9:00 PM,19.4,17.6,93,29.93,0.8,Calm,Calm,-,N/A,Snow,Light Snow,0,2012-11-25 02:00:00
10:00 PM,19.4,17.6,93,29.91,1.0,WSW,3.5,-,N/A,Snow,Light Snow,240,2012-11-25 03:00:00
11:00 PM,19.4,17.6,93,29.89,1.0,Calm,Calm,-,N/A,Snow,Light Snow,0,2012-11-25 04:00:00